Showing default

HJS-6D, 63431

Orbit data source: Space-Track

HJS-6D, 63431 is a payload satellite owned by Zhongguo Xingwang (CN) in LEO that was launched on Tue, 01 Apr 2025 UTC via a CHANG ZHENG 2D launch vehicle from the Jiuquan Satellite Launch Center, China (JSC). Payload-class satellites include a variety of spacecraft equipped with specific instruments for various scientific and technological missions. These include communications satellites like Starlink; space stations such as the ISS; scientific satellites like the Hubble; Earth observation satellites from companies like Planet Labs, Umbra, and HawkEye 360; GPS; miniature CubeSats for education and research; and military/defense satellites.

Loading next visibility...
Identifier
63431, 2025-067D
Orbit
LEO
Country
Flag of CNCN / PRC
Related business
Manufacturer
Changguang WJ
Mission
Operational Civil Communications
Bus & Motor
Unknown
Mass
~300 kg wet, ~300 kg dry
Launch date (UTC)
2025-04-01 (7 months ago)
Launch vehicle
CHANG ZHENG 2D
Launch site
Jiuquan Satellite Launch Center, China (JSC)
Object type
Payload
Rocket body
Debris
Shape & HBR
Box + 2 Pan, 1.1 m
Radar Cross Section
2.320 m², Large (>1 m²)

Expand to show TLE details & history
Last TLE update: 6 hours ago

TLE from 6 hours ago
0 HJS-6D
1 63431U 25067D   25309.28674858  .00015090  00000-0  41068-3 0  9991
2 63431  54.9934 308.9015 0010258 103.1047 257.1126 15.37730848 33568
Epoch: 2025-11-05T06:52Z
TLE epoch observation values (Epoch: 2025-11-05T06:52:55.077Z)
Latitude
-0.00002°
Longitude
160.91041°
Altitude
455.489 km
Speed
7.639 km/s
True Right ascension
20h 35m 36s
True Declination
0° 00' 00"
Sunlit
Object was in daylight at epoch
Visualization orbit readout
Latitude
Unknown
Longitude
Unknown
Altitude
Unknown
Speed
Unknown
Apparent Right ascension
Unknown
Apparent Declination
Unknown
Sunlit
N/A
Visualization observer readout
Local Sidereal Time
09:13:12
Azimuth
Unknown
Elevation
Unknown
Doppler factor
Unknown
Orbital elements
Apogee altitude
459.792 km
Perigee altitude
445.777 km
Semi-major axis
6,830.921 km
Eccentricity
0.00103
Inclination
54.9934°
RAAN
308.9015°
Arg. of periapsis
103.1047°
True anomaly
256.99805°
Mean anomaly
257.1126°
Eccentric anomaly
257.05532°
Mean motion
3.84436 °/min
Orbital period
93.64 mins
BSTAR
0.00041068
Loading maneuver chart data...
Computing Atmospheric mass density...
Loading historical data...
Loading historical data...
Loading historical data...
Loading historical data...
Loading historical data...
Loading historical data...
Loading historical data...
Other satellites on launch #67 in the year 2025 (2025-04-01 UTC)

Documentation

Showing up to 5 results
|